Location: Georgenberg
(48.1500°N, 16.2500°E)
Time: 14:53:18
(UTC+01:00)

N. Korean satellite - Pass Details

Date: 04 December 2022
Orbit: 407 x 441 km, 97.3° (Epoch: 05 February)

Event Time Altitude Azimuth Distance (km) Brightness Sun altitude
Rises 04:23:33 0° 27° (NNE) 2,524 10.5 -29.8°
Reaches altitude 10° 04:26:08 10° 47° (NE) 1,635 9.7 -29.4°
Maximum altitude 04:28:37 18° 92° (E) 1,206 9.3 -28.9°
Drops below altitude 10° 04:31:04 10° 138° (SE) 1,608 9.7 -28.5°
Sets 04:33:34 0° 157° (SSE) 2,464 10.5 -28.1°
